Location: Barcelona
(41.3829°N, 2.1774°E)
Time: 16:59:07
(UTC+00:00)

ACS3 Solar Sail - Visible Passes

Search period start: 18 April 2026 00:00
Search period end: 28 April 2026 00:00
Orbit: 872 x 975 km, 97.2° (Epoch: 17 April)

Date Brightness Start Highest point End Pass type
(mag) Time Alt. Az. Time Alt. Az. Time Alt. Az.
18 Apr 2.8 00:35:45 10° NNE 00:39:49 39° NE 00:39:49 39° NE visible
18 Apr 3.0 02:18:48 10° NNW 02:23:21 26° WNW 02:23:21 26° WNW visible
19 Apr 2.6 00:45:05 10° NNE 00:49:27 46° NE 00:49:27 46° NE visible
19 Apr 3.2 02:28:31 10° NNW 02:32:58 22° WNW 02:33:00 22° WNW visible
20 Apr 2.4 00:54:23 10° NNE 00:59:01 53° NNE 00:59:01 53° NNE visible
20 Apr 3.4 02:38:14 10° NNW 02:42:10 18° WNW 02:42:33 18° WNW visible
20 Apr 4.1 23:24:06 10° ENE 23:24:57 11° ENE 23:24:57 11° ENE visible
21 Apr 2.2 01:03:38 10° NNE 01:08:29 60° NNE 01:08:29 60° NNE visible
21 Apr 3.5 02:47:58 10° NNW 02:51:16 15° WNW 02:52:01 15° WNW visible
21 Apr 3.9 23:32:24 10° NE 23:34:21 14° ENE 23:34:21 14° ENE visible
22 Apr 2.1 01:12:49 10° N 01:17:52 62° N 01:17:52 62° N visible
22 Apr 3.7 02:57:50 10° NW 03:00:17 13° WNW 03:01:24 12° WNW visible
22 Apr 3.8 23:40:57 10° NE 23:43:39 18° ENE 23:43:39 18° ENE visible
23 Apr 2.1 01:21:59 10° N 01:27:10 59° NW 01:27:10 59° NW visible
23 Apr 3.9 03:08:21 10° NW 03:09:11 10° WNW 03:10:01 10° WNW visible
23 Apr 3.6 23:49:34 10° NE 23:52:52 21° ENE 23:52:52 21° ENE visible
24 Apr 2.2 01:31:03 10° N 01:36:23 52° NW 01:36:23 52° NW visible
24 Apr 3.3 23:58:13 10° NE 00:02:00 26° ENE 00:02:00 26° ENE visible
25 Apr 2.3 01:40:05 10° N 01:45:30 45° WNW 01:45:30 45° WNW visible
26 Apr 3.1 00:06:50 10° NNE 00:11:03 31° ENE 00:11:03 31° ENE visible
26 Apr 2.5 01:49:03 10° N 01:54:33 38° WNW 01:54:33 38° WNW visible
27 Apr 2.8 00:15:25 10° NNE 00:20:00 37° ENE 00:20:00 37° ENE visible
27 Apr 2.7 01:57:58 10° N 02:03:17 33° WNW 02:03:30 32° WNW visible
